owner,sensor,date,latitude,longitude,vertical_datum,mass_concentration_of_oxygen_in_sea_water,qcFlag 
DISL,ioos:station:DISL:CATA:1,2017-01-01T00:00:00Z,30.3085,-88.1395,2.335,8.9,1111122 
DISL,ioos:station:DISL:CATA:1,2017-01-01T00:30:00Z,30.3085,-88.1395,2.351,8.88,1111122 
DISL,ioos:station:DISL:CATA:1,2017-01-01T01:00:00Z,30.3085,-88.1395,2.382,8.89,1111122 
DISL,ioos:station:DISL:CATA:1,2017-01-01T01:30:00Z,30.3085,-88.1395,2.398,8.86,1111122 
DISL,ioos:station:DISL:CATA:1,2017-01-01T02:00:00Z,30.3085,-88.1395,2.428,8.87,1111122 
DISL,ioos:station:DISL:CATA:1,2017-01-01T02:30:00Z,30.3085,-88.1395,2.456,8.9,1111122 
DISL,ioos:station:DISL:CATA:1,2017-01-01T03:00:00Z,30.3085,-88.1395,2.495,8.84,1111122 
DISL,ioos:station:DISL:CATA:1,2017-01-01T03:30:00Z,30.3085,-88.1395,2.53,8.76,1111122 
DISL,ioos:station:DISL:CATA:1,2017-01-01T04:00:00Z,30.3085,-88.1395,2.573,8.79,1111122 
DISL,ioos:station:DISL:CATA:1,2017-01-01T04:30:00Z,30.3085,-88.1395,2.594,8.71,1111122 
DISL,ioos:station:DISL:CATA:1,2017-01-01T05:00:00Z,30.3085,-88.1395,2.6,8.75,1111122 
DISL,ioos:station:DISL:CATA:1,2017-01-01T05:30:00Z,30.3085,-88.1395,2.592,8.8,1111122 
DISL,ioos:station:DISL:CATA:1,2017-01-01T06:00:00Z,30.3085,-88.1395,2.601,8.81,1111122 
DISL,ioos:station:DISL:CATA:1,2017-01-01T06:30:00Z,30.3085,-88.1395,2.661,8.84,1111122 
DISL,ioos:station:DISL:CATA:1,2017-01-01T07:00:00Z,30.3085,-88.1395,2.67,8.81,1111122 
DISL,ioos:station:DISL:CATA:1,2017-01-01T07:30:00Z,30.3085,-88.1395,2.624,8.8,1111122 
DISL,ioos:station:DISL:CATA:1,2017-01-01T08:00:00Z,30.3085,-88.1395,2.57,8.72,1111122 
DISL,ioos:station:DISL:CATA:1,2017-01-01T08:30:00Z,30.3085,-88.1395,2.554,8.59,1111122 
DISL,ioos:station:DISL:CATA:1,2017-01-01T09:00:00Z,30.3085,-88.1395,2.548,8.71,1111122 
DISL,ioos:station:DISL:CATA:1,2017-01-01T09:30:00Z,30.3085,-88.1395,2.54,8.59,1111122 
DISL,ioos:station:DISL:CATA:1,2017-01-01T10:00:00Z,30.3085,-88.1395,2.518,8.63,1111122 
DISL,ioos:station:DISL:CATA:1,2017-01-01T10:30:00Z,30.3085,-88.1395,2.452,8.56,1111122 
DISL,ioos:station:DISL:CATA:1,2017-01-01T11:00:00Z,30.3085,-88.1395,2.404,8.58,1111122 
DISL,ioos:station:DISL:CATA:1,2017-01-01T11:30:00Z,30.3085,-88.1395,2.347,8.59,1111122 
DISL,ioos:station:DISL:CATA:1,2017-01-01T12:00:00Z,30.3085,-88.1395,2.32,8.61,1111122 
DISL,ioos:station:DISL:CATA:1,2017-01-01T12:30:00Z,30.3085,-88.1395,2.28,8.61,1111122 
DISL,ioos:station:DISL:CATA:1,2017-01-01T13:00:00Z,30.3085,-88.1395,2.249,8.56,1111122 
DISL,ioos:station:DISL:CATA:1,2017-01-01T13:30:00Z,30.3085,-88.1395,2.228,8.55,1111122 
DISL,ioos:station:DISL:CATA:1,2017-01-01T14:00:00Z,30.3085,-88.1395,2.197,8.58,1111122 
DISL,ioos:station:DISL:CATA:1,2017-01-01T14:30:00Z,30.3085,-88.1395,2.193,8.62,1111122 
DISL,ioos:station:DISL:CATA:1,2017-01-01T15:00:00Z,30.3085,-88.1395,2.197,8.64,1111122 
DISL,ioos:station:DISL:CATA:1,2017-01-01T15:30:00Z,30.3085,-88.1395,2.211,8.66,1111122 
DISL,ioos:station:DISL:CATA:1,2017-01-01T16:00:00Z,30.3085,-88.1395,2.207,8.71,1111122 
DISL,ioos:station:DISL:CATA:1,2017-01-01T16:30:00Z,30.3085,-88.1395,2.229,8.77,1111122 
DISL,ioos:station:DISL:CATA:1,2017-01-01T17:00:00Z,30.3085,-88.1395,2.258,8.82,1111122 
DISL,ioos:station:DISL:CATA:1,2017-01-01T17:30:00Z,30.3085,-88.1395,2.279,8.89,1111122 
DISL,ioos:station:DISL:CATA:1,2017-01-01T18:00:00Z,30.3085,-88.1395,2.279,8.44,1111122 
DISL,ioos:station:DISL:CATA:1,2017-01-01T18:30:00Z,30.3085,-88.1395,2.297,9.1,1111122 
DISL,ioos:station:DISL:CATA:1,2017-01-01T19:00:00Z,30.3085,-88.1395,2.309,9.29,1111122 
DISL,ioos:station:DISL:CATA:1,2017-01-01T19:30:00Z,30.3085,-88.1395,2.325,9.35,1111122 
DISL,ioos:station:DISL:CATA:1,2017-01-01T20:00:00Z,30.3085,-88.1395,2.34,9.37,1111122 
DISL,ioos:station:DISL:CATA:1,2017-01-01T20:30:00Z,30.3085,-88.1395,2.375,9.38,1111122 
DISL,ioos:station:DISL:CATA:1,2017-01-01T21:00:00Z,30.3085,-88.1395,2.414,9.42,1111122 
DISL,ioos:station:DISL:CATA:1,2017-01-01T21:30:00Z,30.3085,-88.1395,2.433,9.44,1111122 
DISL,ioos:station:DISL:CATA:1,2017-01-01T22:00:00Z,30.3085,-88.1395,2.462,9.44,1111122 
DISL,ioos:station:DISL:CATA:1,2017-01-01T22:30:00Z,30.3085,-88.1395,2.486,9.39,1111122 
DISL,ioos:station:DISL:CATA:1,2017-01-01T23:00:00Z,30.3085,-88.1395,2.504,9.3,1111122 
DISL,ioos:station:DISL:CATA:1,2017-01-01T23:30:00Z,30.3085,-88.1395,2.538,9.26,1111122 
DISL,ioos:station:DISL:CATA:1,2017-01-02T00:00:00Z,30.3085,-88.1395,2.548,9.22,1111122 
DISL,ioos:station:DISL:CATA:1,2017-01-02T00:30:00Z,30.3085,-88.1395,2.57,9.21,1111122 
DISL,ioos:station:DISL:CATA:1,2017-01-02T01:00:00Z,30.3085,-88.1395,2.593,9.15,1111122 
DISL,ioos:station:DISL:CATA:1,2017-01-02T01:30:00Z,30.3085,-88.1395,2.619,9.11,1111122 
DISL,ioos:station:DISL:CATA:1,2017-01-02T02:00:00Z,30.3085,-88.1395,2.641,9.05,1111122 
DISL,ioos:station:DISL:CATA:1,2017-01-02T02:30:00Z,30.3085,-88.1395,2.677,9.07,1111122 
DISL,ioos:station:DISL:CATA:1,2017-01-02T03:00:00Z,30.3085,-88.1395,2.707,9.07,1111122 
DISL,ioos:station:DISL:CATA:1,2017-01-02T03:30:00Z,30.3085,-88.1395,2.706,9.01,1111122 
DISL,ioos:station:DISL:CATA:1,2017-01-02T04:00:00Z,30.3085,-88.1395,2.702,8.89,1111122 
DISL,ioos:station:DISL:CATA:1,2017-01-02T04:30:00Z,30.3085,-88.1395,2.716,8.82,1111122 
DISL,ioos:station:DISL:CATA:1,2017-01-02T05:00:00Z,30.3085,-88.1395,2.722,8.73,1111122 
DISL,ioos:station:DISL:CATA:1,2017-01-02T05:30:00Z,30.3085,-88.1395,2.712,8.64,1111122 
DISL,ioos:station:DISL:CATA:1,2017-01-02T06:00:00Z,30.3085,-88.1395,2.67,8.64,1111122 
DISL,ioos:station:DISL:CATA:1,2017-01-02T06:30:00Z,30.3085,-88.1395,2.643,8.69,1111122 
DISL,ioos:station:DISL:CATA:1,2017-01-02T07:00:00Z,30.3085,-88.1395,2.622,8.88,1111122 
DISL,ioos:station:DISL:CATA:1,2017-01-02T07:30:00Z,30.3085,-88.1395,2.585,8.83,1111122 
DISL,ioos:station:DISL:CATA:1,2017-01-02T08:00:00Z,30.3085,-88.1395,2.557,8.75,1111122 
DISL,ioos:station:DISL:CATA:1,2017-01-02T08:30:00Z,30.3085,-88.1395,2.541,8.75,1111122 
DISL,ioos:station:DISL:CATA:1,2017-01-02T09:00:00Z,30.3085,-88.1395,2.532,8.76,1111122 
DISL,ioos:station:DISL:CATA:1,2017-01-02T09:30:00Z,30.3085,-88.1395,2.516,8.75,1111122 
DISL,ioos:station:DISL:CATA:1,2017-01-02T10:00:00Z,30.3085,-88.1395,2.499,8.75,1111122 
DISL,ioos:station:DISL:CATA:1,2017-01-02T10:30:00Z,30.3085,-88.1395,2.47,8.69,1111122 
DISL,ioos:station:DISL:CATA:1,2017-01-02T11:00:00Z,30.3085,-88.1395,2.417,8.69,1111122 
DISL,ioos:station:DISL:CATA:1,2017-01-02T11:30:00Z,30.3085,-88.1395,2.364,8.69,1111122 
DISL,ioos:station:DISL:CATA:1,2017-01-02T12:00:00Z,30.3085,-88.1395,2.326,8.74,1111122 
DISL,ioos:station:DISL:CATA:1,2017-01-02T12:30:00Z,30.3085,-88.1395,2.284,8.76,1111122 
DISL,ioos:station:DISL:CATA:1,2017-01-02T13:00:00Z,30.3085,-88.1395,2.25,8.68,1111122 
DISL,ioos:station:DISL:CATA:1,2017-01-02T13:30:00Z,30.3085,-88.1395,2.216,8.63,1111122 
DISL,ioos:station:DISL:CATA:1,2017-01-02T14:00:00Z,30.3085,-88.1395,2.202,8.66,1111122 
DISL,ioos:station:DISL:CATA:1,2017-01-02T14:30:00Z,30.3085,-88.1395,2.186,8.78,1111122 
DISL,ioos:station:DISL:CATA:1,2017-01-02T15:00:00Z,30.3085,-88.1395,2.182,8.82,1111122 
DISL,ioos:station:DISL:CATA:1,2017-01-02T15:30:00Z,30.3085,-88.1395,2.192,8.97,1111122 
DISL,ioos:station:DISL:CATA:1,2017-01-02T16:00:00Z,30.3085,-88.1395,2.204,9.08,1111122 
DISL,ioos:station:DISL:CATA:1,2017-01-02T16:30:00Z,30.3085,-88.1395,2.204,9.03,1111122 
DISL,ioos:station:DISL:CATA:1,2017-01-02T17:00:00Z,30.3085,-88.1395,2.209,9.07,1111122 
DISL,ioos:station:DISL:CATA:1,2017-01-02T17:30:00Z,30.3085,-88.1395,2.21,9.13,1111122 
DISL,ioos:station:DISL:CATA:1,2017-01-02T18:00:00Z,30.3085,-88.1395,2.234,9.12,1111122 
DISL,ioos:station:DISL:CATA:1,2017-01-02T18:30:00Z,30.3085,-88.1395,2.265,9.07,1111122 
DISL,ioos:station:DISL:CATA:1,2017-01-02T19:00:00Z,30.3085,-88.1395,2.273,8.9,1111122 
DISL,ioos:station:DISL:CATA:1,2017-01-02T19:30:00Z,30.3085,-88.1395,2.285,8.95,1111122 
DISL,ioos:station:DISL:CATA:1,2017-01-02T20:00:00Z,30.3085,-88.1395,2.321,8.89,1111122 
DISL,ioos:station:DISL:CATA:1,2017-01-02T20:30:00Z,30.3085,-88.1395,2.407,8.93,1111122 
DISL,ioos:station:DISL:CATA:1,2017-01-02T21:00:00Z,30.3085,-88.1395,2.396,8.95,1111122 
DISL,ioos:station:DISL:CATA:1,2017-01-02T21:30:00Z,30.3085,-88.1395,2.336,8.85,1111122 
DISL,ioos:station:DISL:CATA:1,2017-01-02T22:00:00Z,30.3085,-88.1395,2.472,8.83,1111122 
DISL,ioos:station:DISL:CATA:1,2017-01-02T22:30:00Z,30.3085,-88.1395,2.418,8.75,1111122 
DISL,ioos:station:DISL:CATA:1,2017-01-02T23:00:00Z,30.3085,-88.1395,2.495,8.66,1111122 
DISL,ioos:station:DISL:CATA:1,2017-01-02T23:30:00Z,30.3085,-88.1395,2.525,8.6,1111122 
DISL,ioos:station:DISL:CATA:1,2017-01-03T00:00:00Z,30.3085,-88.1395,2.599,8.52,1111122 
DISL,ioos:station:DISL:CATA:1,2017-01-03T00:30:00Z,30.3085,-88.1395,2.634,8.48,1111122 
DISL,ioos:station:DISL:CATA:1,2017-01-03T01:00:00Z,30.3085,-88.1395,2.548,8.45,1111122 
DISL,ioos:station:DISL:CATA:1,2017-01-03T01:30:00Z,30.3085,-88.1395,2.503,8.47,1111122 
DISL,ioos:station:DISL:CATA:1,2017-01-03T02:00:00Z,30.3085,-88.1395,2.566,8.45,1111122 
DISL,ioos:station:DISL:CATA:1,2017-01-03T02:30:00Z,30.3085,-88.1395,2.501,8.57,1111122 
DISL,ioos:station:DISL:CATA:1,2017-01-03T03:00:00Z,30.3085,-88.1395,2.432,8.61,1111122 
DISL,ioos:station:DISL:CATA:1,2017-01-03T03:30:00Z,30.3085,-88.1395,2.472,8.55,1111122 
DISL,ioos:station:DISL:CATA:1,2017-01-03T04:00:00Z,30.3085,-88.1395,2.508,8.63,1111122 
DISL,ioos:station:DISL:CATA:1,2017-01-03T04:30:00Z,30.3085,-88.1395,2.536,8.58,1111122 
DISL,ioos:station:DISL:CATA:1,2017-01-03T05:00:00Z,30.3085,-88.1395,2.562,8.6,1111122 
DISL,ioos:station:DISL:CATA:1,2017-01-03T05:30:00Z,30.3085,-88.1395,2.586,8.5,1111122 
DISL,ioos:station:DISL:CATA:1,2017-01-03T06:00:00Z,30.3085,-88.1395,2.607,8.5,1111122 
DISL,ioos:station:DISL:CATA:1,2017-01-03T06:30:00Z,30.3085,-88.1395,2.616,8.47,1111122 
DISL,ioos:station:DISL:CATA:1,2017-01-03T07:00:00Z,30.3085,-88.1395,2.599,8.39,1111122 
DISL,ioos:station:DISL:CATA:1,2017-01-03T07:30:00Z,30.3085,-88.1395,2.533,8.24,1111122 
DISL,ioos:station:DISL:CATA:1,2017-01-03T08:00:00Z,30.3085,-88.1395,2.522,8.17,1111122 
DISL,ioos:station:DISL:CATA:1,2017-01-03T08:30:00Z,30.3085,-88.1395,2.526,8.07,1111122 
DISL,ioos:station:DISL:CATA:1,2017-01-03T09:00:00Z,30.3085,-88.1395,2.538,8.13,1111122 
DISL,ioos:station:DISL:CATA:1,2017-01-03T09:30:00Z,30.3085,-88.1395,2.523,8.19,1111122 
DISL,ioos:station:DISL:CATA:1,2017-01-03T10:00:00Z,30.3085,-88.1395,2.491,8.3,1111122 
DISL,ioos:station:DISL:CATA:1,2017-01-03T10:30:00Z,30.3085,-88.1395,2.451,8.36,1111122 
DISL,ioos:station:DISL:CATA:1,2017-01-03T11:00:00Z,30.3085,-88.1395,2.403,8.38,1111122 
DISL,ioos:station:DISL:CATA:1,2017-01-03T11:30:00Z,30.3085,-88.1395,2.354,8.33,1111122 
DISL,ioos:station:DISL:CATA:1,2017-01-03T12:00:00Z,30.3085,-88.1395,2.316,8.3,1111122 
DISL,ioos:station:DISL:CATA:1,2017-01-03T12:30:00Z,30.3085,-88.1395,2.271,8.31,1111122 
DISL,ioos:station:DISL:CATA:1,2017-01-03T13:00:00Z,30.3085,-88.1395,2.244,8.39,1111122 
DISL,ioos:station:DISL:CATA:1,2017-01-03T13:30:00Z,30.3085,-88.1395,2.22,8.43,1111122 
DISL,ioos:station:DISL:CATA:1,2017-01-03T14:00:00Z,30.3085,-88.1395,2.21,8.47,1111122 
DISL,ioos:station:DISL:CATA:1,2017-01-03T14:30:00Z,30.3085,-88.1395,2.194,8.53,1111122 
DISL,ioos:station:DISL:CATA:1,2017-01-03T15:00:00Z,30.3085,-88.1395,2.208,8.6,1111122 
DISL,ioos:station:DISL:CATA:1,2017-01-03T15:30:00Z,30.3085,-88.1395,2.209,8.64,1111122 
DISL,ioos:station:DISL:CATA:1,2017-01-03T16:00:00Z,30.3085,-88.1395,2.21,8.71,1111122 
DISL,ioos:station:DISL:CATA:1,2017-01-03T16:30:00Z,30.3085,-88.1395,2.235,8.76,1111122 
DISL,ioos:station:DISL:CATA:1,2017-01-03T17:00:00Z,30.3085,-88.1395,2.237,8.82,1111122 
DISL,ioos:station:DISL:CATA:1,2017-01-03T17:30:00Z,30.3085,-88.1395,2.256,8.51,1111122 
DISL,ioos:station:DISL:CATA:1,2017-01-03T18:00:00Z,30.3085,-88.1395,2.259,8.95,1111122 
DISL,ioos:station:DISL:CATA:1,2017-01-03T18:30:00Z,30.3085,-88.1395,2.269,9.22,1111122 
DISL,ioos:station:DISL:CATA:1,2017-01-03T19:00:00Z,30.3085,-88.1395,2.261,9.22,1111122 
DISL,ioos:station:DISL:CATA:1,2017-01-03T19:30:00Z,30.3085,-88.1395,2.267,9.28,1111122 
DISL,ioos:station:DISL:CATA:1,2017-01-03T20:00:00Z,30.3085,-88.1395,2.287,9.28,1111122 
DISL,ioos:station:DISL:CATA:1,2017-01-03T20:30:00Z,30.3085,-88.1395,2.317,9.26,1111122 
DISL,ioos:station:DISL:CATA:1,2017-01-03T21:00:00Z,30.3085,-88.1395,2.347,9.19,1111122 
DISL,ioos:station:DISL:CATA:1,2017-01-03T21:30:00Z,30.3085,-88.1395,2.369,9.11,1111122 
DISL,ioos:station:DISL:CATA:1,2017-01-03T22:00:00Z,30.3085,-88.1395,0.584,8.62,1111122 
DISL,ioos:station:DISL:CATA:1,2017-01-03T22:30:00Z,30.3085,-88.1395,2.305,9.25,1111122 
DISL,ioos:station:DISL:CATA:1,2017-01-03T23:00:00Z,30.3085,-88.1395,2.31,9.23,1111122 
DISL,ioos:station:DISL:CATA:1,2017-01-03T23:30:00Z,30.3085,-88.1395,2.322,9.12,1111122 
DISL,ioos:station:DISL:CATA:1,2017-01-04T00:00:00Z,30.3085,-88.1395,2.333,9.09,1111122 
DISL,ioos:station:DISL:CATA:1,2017-01-04T00:30:00Z,30.3085,-88.1395,2.336,9.01,1111122 
DISL,ioos:station:DISL:CATA:1,2017-01-04T01:00:00Z,30.3085,-88.1395,2.341,8.88,1111122 
DISL,ioos:station:DISL:CATA:1,2017-01-04T01:30:00Z,30.3085,-88.1395,2.364,8.79,1111122 
DISL,ioos:station:DISL:CATA:1,2017-01-04T02:00:00Z,30.3085,-88.1395,2.38,8.74,1111122 
DISL,ioos:station:DISL:CATA:1,2017-01-04T02:30:00Z,30.3085,-88.1395,2.398,8.77,1111122 
DISL,ioos:station:DISL:CATA:1,2017-01-04T03:00:00Z,30.3085,-88.1395,2.413,8.72,1111122 
DISL,ioos:station:DISL:CATA:1,2017-01-04T03:30:00Z,30.3085,-88.1395,2.421,8.66,1111122 
DISL,ioos:station:DISL:CATA:1,2017-01-04T04:00:00Z,30.3085,-88.1395,2.423,8.6,1111122 
DISL,ioos:station:DISL:CATA:1,2017-01-04T04:30:00Z,30.3085,-88.1395,2.418,8.56,1111122 
DISL,ioos:station:DISL:CATA:1,2017-01-04T05:00:00Z,30.3085,-88.1395,2.432,8.56,1111122 
DISL,ioos:station:DISL:CATA:1,2017-01-04T05:30:00Z,30.3085,-88.1395,2.428,8.46,1111122 
DISL,ioos:station:DISL:CATA:1,2017-01-04T06:00:00Z,30.3085,-88.1395,2.419,8.42,1111122 
DISL,ioos:station:DISL:CATA:1,2017-01-04T06:30:00Z,30.3085,-88.1395,2.413,8.38,1111122 
DISL,ioos:station:DISL:CATA:1,2017-01-04T07:00:00Z,30.3085,-88.1395,2.402,8.35,1111122 
DISL,ioos:station:DISL:CATA:1,2017-01-04T07:30:00Z,30.3085,-88.1395,2.4,8.29,1111122 
DISL,ioos:station:DISL:CATA:1,2017-01-04T08:00:00Z,30.3085,-88.1395,2.377,8.27,1111122 
DISL,ioos:station:DISL:CATA:1,2017-01-04T08:30:00Z,30.3085,-88.1395,2.369,8.19,1111122 
DISL,ioos:station:DISL:CATA:1,2017-01-04T09:00:00Z,30.3085,-88.1395,2.368,7.89,1111122 
DISL,ioos:station:DISL:CATA:1,2017-01-04T09:30:00Z,30.3085,-88.1395,2.359,7.77,1111122 
DISL,ioos:station:DISL:CATA:1,2017-01-04T10:00:00Z,30.3085,-88.1395,2.343,8.1,1111122 
DISL,ioos:station:DISL:CATA:1,2017-01-04T10:30:00Z,30.3085,-88.1395,2.334,8.09,1111122 
DISL,ioos:station:DISL:CATA:1,2017-01-04T11:00:00Z,30.3085,-88.1395,2.323,7.94,1111122 
DISL,ioos:station:DISL:CATA:1,2017-01-04T11:30:00Z,30.3085,-88.1395,2.302,8.17,1111122 
DISL,ioos:station:DISL:CATA:1,2017-01-04T12:00:00Z,30.3085,-88.1395,2.267,8.24,1111122 
DISL,ioos:station:DISL:CATA:1,2017-01-04T12:30:00Z,30.3085,-88.1395,2.221,8.54,1111122 
DISL,ioos:station:DISL:CATA:1,2017-01-04T13:00:00Z,30.3085,-88.1395,2.171,8.51,1111122 
DISL,ioos:station:DISL:CATA:1,2017-01-04T13:30:00Z,30.3085,-88.1395,2.099,8.6,1111122 
DISL,ioos:station:DISL:CATA:1,2017-01-04T14:00:00Z,30.3085,-88.1395,2.043,8.67,1111122 
DISL,ioos:station:DISL:CATA:1,2017-01-04T14:30:00Z,30.3085,-88.1395,2.048,8.57,1111122 
DISL,ioos:station:DISL:CATA:1,2017-01-04T15:00:00Z,30.3085,-88.1395,2.032,8.56,1111122 
DISL,ioos:station:DISL:CATA:1,2017-01-04T15:30:00Z,30.3085,-88.1395,2.01,8.53,1111122 
DISL,ioos:station:DISL:CATA:1,2017-01-04T16:00:00Z,30.3085,-88.1395,2.004,8.62,1111122 
DISL,ioos:station:DISL:CATA:1,2017-01-04T16:30:00Z,30.3085,-88.1395,2.032,8.71,1111122 
DISL,ioos:station:DISL:CATA:1,2017-01-04T17:00:00Z,30.3085,-88.1395,2.056,8.73,1111122 
DISL,ioos:station:DISL:CATA:1,2017-01-04T17:30:00Z,30.3085,-88.1395,2.075,8.74,1111122 
DISL,ioos:station:DISL:CATA:1,2017-01-04T18:00:00Z,30.3085,-88.1395,2.111,8.81,1111122 
DISL,ioos:station:DISL:CATA:1,2017-01-04T18:30:00Z,30.3085,-88.1395,2.121,8.63,1111122 
DISL,ioos:station:DISL:CATA:1,2017-01-04T19:00:00Z,30.3085,-88.1395,2.112,9.25,1111122 
DISL,ioos:station:DISL:CATA:1,2017-01-04T19:30:00Z,30.3085,-88.1395,2.112,9.28,1111122 
DISL,ioos:station:DISL:CATA:1,2017-01-04T20:00:00Z,30.3085,-88.1395,2.128,9.29,1111122 
DISL,ioos:station:DISL:CATA:1,2017-01-04T20:30:00Z,30.3085,-88.1395,2.128,9.32,1111122 
DISL,ioos:station:DISL:CATA:1,2017-01-04T21:00:00Z,30.3085,-88.1395,2.142,9.36,1111122 
DISL,ioos:station:DISL:CATA:1,2017-01-04T21:30:00Z,30.3085,-88.1395,2.155,9.34,1111122 
DISL,ioos:station:DISL:CATA:1,2017-01-04T22:00:00Z,30.3085,-88.1395,2.15,9.38,1111122 
DISL,ioos:station:DISL:CATA:1,2017-01-04T22:30:00Z,30.3085,-88.1395,2.193,9.29,1111122 
DISL,ioos:station:DISL:CATA:1,2017-01-04T23:00:00Z,30.3085,-88.1395,2.228,9.25,1111122 
DISL,ioos:station:DISL:CATA:1,2017-01-04T23:30:00Z,30.3085,-88.1395,2.214,9.21,1111122 
DISL,ioos:station:DISL:CATA:1,2017-01-05T00:00:00Z,30.3085,-88.1395,2.182,9.14,1111122 
DISL,ioos:station:DISL:CATA:1,2017-01-05T00:30:00Z,30.3085,-88.1395,2.172,8.87,1111122 
DISL,ioos:station:DISL:CATA:1,2017-01-05T01:00:00Z,30.3085,-88.1395,2.148,9.03,1111122 
DISL,ioos:station:DISL:CATA:1,2017-01-05T01:30:00Z,30.3085,-88.1395,2.143,9.0,1111122 
DISL,ioos:station:DISL:CATA:1,2017-01-05T02:00:00Z,30.3085,-88.1395,2.135,9.19,1111122 
DISL,ioos:station:DISL:CATA:1,2017-01-05T02:30:00Z,30.3085,-88.1395,2.141,9.04,1111122 
DISL,ioos:station:DISL:CATA:1,2017-01-05T03:00:00Z,30.3085,-88.1395,2.126,8.98,1111122 
DISL,ioos:station:DISL:CATA:1,2017-01-05T03:30:00Z,30.3085,-88.1395,2.12,8.84,1111122 
DISL,ioos:station:DISL:CATA:1,2017-01-05T04:00:00Z,30.3085,-88.1395,2.12,8.82,1111122 
DISL,ioos:station:DISL:CATA:1,2017-01-05T04:30:00Z,30.3085,-88.1395,2.118,8.82,1111122 
DISL,ioos:station:DISL:CATA:1,2017-01-05T05:00:00Z,30.3085,-88.1395,2.119,8.82,1111122 
DISL,ioos:station:DISL:CATA:1,2017-01-05T05:30:00Z,30.3085,-88.1395,2.139,8.81,1111122 
DISL,ioos:station:DISL:CATA:1,2017-01-05T06:00:00Z,30.3085,-88.1395,2.154,8.8,1111122 
DISL,ioos:station:DISL:CATA:1,2017-01-05T06:30:00Z,30.3085,-88.1395,2.169,8.57,1111122 
DISL,ioos:station:DISL:CATA:1,2017-01-05T07:00:00Z,30.3085,-88.1395,2.181,8.69,1111122 
DISL,ioos:station:DISL:CATA:1,2017-01-05T07:30:00Z,30.3085,-88.1395,2.19,8.68,1111122 
DISL,ioos:station:DISL:CATA:1,2017-01-05T08:00:00Z,30.3085,-88.1395,2.184,8.7,1111122 
DISL,ioos:station:DISL:CATA:1,2017-01-05T08:30:00Z,30.3085,-88.1395,2.185,8.68,1111122 
DISL,ioos:station:DISL:CATA:1,2017-01-05T09:00:00Z,30.3085,-88.1395,2.176,8.66,1111122 
DISL,ioos:station:DISL:CATA:1,2017-01-05T09:30:00Z,30.3085,-88.1395,2.202,8.4,1111122 
DISL,ioos:station:DISL:CATA:1,2017-01-05T10:00:00Z,30.3085,-88.1395,2.202,8.38,1111122 
DISL,ioos:station:DISL:CATA:1,2017-01-05T10:30:00Z,30.3085,-88.1395,2.192,8.64,1111122 
DISL,ioos:station:DISL:CATA:1,2017-01-05T11:00:00Z,30.3085,-88.1395,2.187,8.61,1111122 
DISL,ioos:station:DISL:CATA:1,2017-01-05T11:30:00Z,30.3085,-88.1395,2.182,8.74,1111122 
DISL,ioos:station:DISL:CATA:1,2017-01-05T12:00:00Z,30.3085,-88.1395,2.164,8.8,1111122 
DISL,ioos:station:DISL:CATA:1,2017-01-05T12:30:00Z,30.3085,-88.1395,2.125,8.75,1111122 
DISL,ioos:station:DISL:CATA:1,2017-01-05T13:00:00Z,30.3085,-88.1395,2.106,8.74,1111122 
DISL,ioos:station:DISL:CATA:1,2017-01-05T13:30:00Z,30.3085,-88.1395,2.089,8.73,1111122 
DISL,ioos:station:DISL:CATA:1,2017-01-05T14:00:00Z,30.3085,-88.1395,2.07,8.85,1111122 
DISL,ioos:station:DISL:CATA:1,2017-01-05T14:30:00Z,30.3085,-88.1395,2.056,8.94,1111122 
DISL,ioos:station:DISL:CATA:1,2017-01-05T15:00:00Z,30.3085,-88.1395,2.058,9.0,1111122 
DISL,ioos:station:DISL:CATA:1,2017-01-05T15:30:00Z,30.3085,-88.1395,2.066,9.11,1111122 
DISL,ioos:station:DISL:CATA:1,2017-01-05T16:00:00Z,30.3085,-88.1395,2.075,9.31,1111122 
DISL,ioos:station:DISL:CATA:1,2017-01-05T16:30:00Z,30.3085,-88.1395,2.084,9.4,1111122 
DISL,ioos:station:DISL:CATA:1,2017-01-05T17:00:00Z,30.3085,-88.1395,2.099,9.5,1111122 
DISL,ioos:station:DISL:CATA:1,2017-01-05T17:30:00Z,30.3085,-88.1395,2.107,9.61,1111122 
DISL,ioos:station:DISL:CATA:1,2017-01-05T18:00:00Z,30.3085,-88.1395,2.11,9.72,1111122 
DISL,ioos:station:DISL:CATA:1,2017-01-05T18:30:00Z,30.3085,-88.1395,2.118,9.01,1111122 
DISL,ioos:station:DISL:CATA:1,2017-01-05T19:00:00Z,30.3085,-88.1395,2.117,9.3,1111122 
DISL,ioos:station:DISL:CATA:1,2017-01-05T19:30:00Z,30.3085,-88.1395,2.133,9.71,1111122 
DISL,ioos:station:DISL:CATA:1,2017-01-05T20:00:00Z,30.3085,-88.1395,2.153,9.56,1111122 
DISL,ioos:station:DISL:CATA:1,2017-01-05T20:30:00Z,30.3085,-88.1395,2.154,9.35,1111122 
DISL,ioos:station:DISL:CATA:1,2017-01-05T21:00:00Z,30.3085,-88.1395,2.171,10.38,1111122 
DISL,ioos:station:DISL:CATA:1,2017-01-05T21:30:00Z,30.3085,-88.1395,2.196,10.03,1111122 
DISL,ioos:station:DISL:CATA:1,2017-01-05T22:00:00Z,30.3085,-88.1395,2.215,10.04,1111122 
DISL,ioos:station:DISL:CATA:1,2017-01-05T22:30:00Z,30.3085,-88.1395,2.215,10.01,1111122 
DISL,ioos:station:DISL:CATA:1,2017-01-05T23:00:00Z,30.3085,-88.1395,2.229,10.01,1111122 
DISL,ioos:station:DISL:CATA:1,2017-01-05T23:30:00Z,30.3085,-88.1395,2.237,9.69,1111122 
DISL,ioos:station:DISL:CATA:1,2017-01-06T00:00:00Z,30.3085,-88.1395,2.25,9.41,1111122 
DISL,ioos:station:DISL:CATA:1,2017-01-06T00:30:00Z,30.3085,-88.1395,2.258,9.44,1111122 
DISL,ioos:station:DISL:CATA:1,2017-01-06T01:00:00Z,30.3085,-88.1395,2.263,8.94,1111122 
DISL,ioos:station:DISL:CATA:1,2017-01-06T01:30:00Z,30.3085,-88.1395,2.264,9.25,1111122 
DISL,ioos:station:DISL:CATA:1,2017-01-06T02:00:00Z,30.3085,-88.1395,2.263,8.99,1111122 
DISL,ioos:station:DISL:CATA:1,2017-01-06T02:30:00Z,30.3085,-88.1395,2.264,9.19,1111122 
DISL,ioos:station:DISL:CATA:1,2017-01-06T03:00:00Z,30.3085,-88.1395,2.285,9.17,1111122 
DISL,ioos:station:DISL:CATA:1,2017-01-06T03:30:00Z,30.3085,-88.1395,2.253,8.19,1111122 
DISL,ioos:station:DISL:CATA:1,2017-01-06T04:00:00Z,30.3085,-88.1395,2.243,8.81,1111122 
DISL,ioos:station:DISL:CATA:1,2017-01-06T04:30:00Z,30.3085,-88.1395,2.239,9.24,1111122 
DISL,ioos:station:DISL:CATA:1,2017-01-06T05:00:00Z,30.3085,-88.1395,2.229,9.28,1111122 
DISL,ioos:station:DISL:CATA:1,2017-01-06T05:30:00Z,30.3085,-88.1395,2.24,9.72,1111122 
DISL,ioos:station:DISL:CATA:1,2017-01-06T06:00:00Z,30.3085,-88.1395,2.218,10.16,1111122 
DISL,ioos:station:DISL:CATA:1,2017-01-06T06:30:00Z,30.3085,-88.1395,2.218,10.42,1111122 
DISL,ioos:station:DISL:CATA:1,2017-01-06T07:00:00Z,30.3085,-88.1395,2.185,10.35,1111122 
DISL,ioos:station:DISL:CATA:1,2017-01-06T07:30:00Z,30.3085,-88.1395,2.154,10.23,1111122 
DISL,ioos:station:DISL:CATA:1,2017-01-06T08:00:00Z,30.3085,-88.1395,2.12,10.41,1111122 
DISL,ioos:station:DISL:CATA:1,2017-01-06T08:30:00Z,30.3085,-88.1395,2.095,10.39,1111122 
DISL,ioos:station:DISL:CATA:1,2017-01-06T09:00:00Z,30.3085,-88.1395,2.083,10.28,1111122 
DISL,ioos:station:DISL:CATA:1,2017-01-06T09:30:00Z,30.3085,-88.1395,2.094,10.21,1111122 
DISL,ioos:station:DISL:CATA:1,2017-01-06T10:00:00Z,30.3085,-88.1395,2.078,10.0,1111122 
DISL,ioos:station:DISL:CATA:1,2017-01-06T10:30:00Z,30.3085,-88.1395,2.077,9.91,1111122 
DISL,ioos:station:DISL:CATA:1,2017-01-06T11:00:00Z,30.3085,-88.1395,2.076,9.86,1111122 
DISL,ioos:station:DISL:CATA:1,2017-01-06T11:30:00Z,30.3085,-88.1395,2.064,9.76,1111122 
DISL,ioos:station:DISL:CATA:1,2017-01-06T12:00:00Z,30.3085,-88.1395,2.057,9.69,1111122 
DISL,ioos:station:DISL:CATA:1,2017-01-06T12:30:00Z,30.3085,-88.1395,2.054,9.61,1111122 
DISL,ioos:station:DISL:CATA:1,2017-01-06T13:00:00Z,30.3085,-88.1395,2.07,9.61,1111122 
DISL,ioos:station:DISL:CATA:1,2017-01-06T13:30:00Z,30.3085,-88.1395,2.053,9.56,1111122 
DISL,ioos:station:DISL:CATA:1,2017-01-06T14:00:00Z,30.3085,-88.1395,2.049,9.57,1111122 
DISL,ioos:station:DISL:CATA:1,2017-01-06T14:30:00Z,30.3085,-88.1395,2.042,9.58,1111122 
DISL,ioos:station:DISL:CATA:1,2017-01-06T15:00:00Z,30.3085,-88.1395,2.047,9.52,1111122 
DISL,ioos:station:DISL:CATA:1,2017-01-06T15:30:00Z,30.3085,-88.1395,2.018,9.51,1111122 